Date String (YYYY-MM-DD hh:mm:ss) UTC,Instrument flags,Ambient pressure (hPa),Sample flow (lpm),Bypass flow (lpm),Sample temperature (°C),Ambient temperature (°C),ASC tube jacket temperature (°C),LED temperature (°C),Box temperature (°C),Sample RH (%),Span deviation,Mass concentration (μg/m³),Mass concentration (μg/m³),Mass concentration (μg/m³)
DateTimeUTC,F1_M11,P_M11,Q1_M11,Q2_M11,T1_M11,T2_M11,T3_M11,T4_M11,T5_M11,U1_M11,ZSPAN_M11,X0_M11,X2_M11,X1_M11
2021-10-11 11:00:00,,0821.8,5.00,0.00,28.1,26.9,00.0,37.3,29.8,10.5,0000.0,0002.60,0002.09,0001.89
2021-10-11 11:01:00,,0821.8,4.99,0.00,28.1,26.8,00.0,37.3,29.7,10.5,0000.0,0002.54,0002.06,0001.88
2021-10-11 11:02:00,,0821.8,5.00,0.00,28.0,26.8,00.0,37.3,29.7,10.5,0000.0,0002.51,0002.06,0001.89
2021-10-11 11:03:00,,0821.8,5.01,0.00,28.0,26.8,00.0,37.3,29.7,10.5,0000.0,0002.51,0002.08,0001.90
2021-10-11 11:04:00,,0821.8,5.01,0.00,28.0,26.8,00.0,37.3,29.7,10.5,0000.0,0002.53,0002.09,0001.91
2021-10-11 11:05:00,,0821.8,5.00,0.00,28.0,26.8,00.0,37.3,29.7,10.5,0000.0,0002.52,0002.09,0001.91
2021-10-11 11:06:00,,0821.8,4.99,0.00,28.0,26.8,00.0,37.2,29.7,10.5,0000.0,0002.59,0002.12,0001.91
2021-10-11 11:07:00,,0821.8,5.00,0.00,28.0,26.8,00.0,37.2,29.7,10.6,0000.0,0002.61,0002.13,0001.91
2021-10-11 11:08:00,,0821.8,5.01,0.00,28.0,26.8,00.0,37.2,29.7,10.6,0000.0,0002.59,0002.12,0001.91
2021-10-11 11:09:00,,0821.7,5.01,0.00,28.0,26.8,00.0,37.2,29.7,10.6,0000.0,0002.58,0002.11,0001.91
2021-10-11 11:10:00,,0821.7,4.99,0.00,28.0,26.8,00.0,37.2,29.7,10.6,0000.0,0002.60,0002.11,0001.90
2021-10-11 11:11:00,,0821.8,5.01,0.00,28.0,26.8,00.0,37.2,29.7,10.6,0000.0,0002.60,0002.11,0001.91
2021-10-11 11:12:00,,0821.8,5.01,0.00,28.0,26.8,00.0,37.2,29.7,10.6,0000.0,0002.59,0002.10,0001.91
2021-10-11 11:13:00,,0821.8,5.00,0.00,28.0,26.7,00.0,37.2,29.7,10.7,0000.0,0002.78,0002.17,0001.91
2021-10-11 11:14:00,,0821.8,5.00,0.00,28.0,26.7,00.0,37.2,29.7,10.7,0000.0,0002.84,0002.19,0001.91
2021-10-11 11:15:00,,0821.8,5.02,0.00,28.0,26.8,00.0,37.2,29.7,10.7,0000.0,0002.87,0002.20,0001.90
2021-10-11 11:16:00,,0821.8,5.00,0.00,28.0,26.8,00.0,37.2,29.6,10.7,0000.0,0002.91,0002.21,0001.91
2021-10-11 11:17:00,,0821.8,5.00,0.00,28.0,26.8,00.0,37.2,29.7,10.7,0000.0,0002.92,0002.23,0001.92
2021-10-11 11:18:00,,0821.8,5.00,0.00,27.9,26.8,00.0,37.2,29.6,10.7,0000.0,0002.87,0002.20,0001.92
2021-10-11 11:19:00,,0821.8,5.01,0.00,27.9,26.8,00.0,37.2,29.7,10.7,0000.0,0002.90,0002.20,0001.91
2021-10-11 11:20:00,,0821.8,5.00,0.00,27.9,26.7,00.0,37.1,29.6,10.7,0000.0,0002.92,0002.20,0001.90
2021-10-11 11:21:00,,0821.8,5.01,0.00,27.9,26.7,00.0,37.1,29.6,10.8,0000.0,0002.97,0002.22,0001.90
2021-10-11 11:22:00,,0821.8,5.00,0.00,27.9,26.7,00.0,37.1,29.6,10.8,0000.0,0003.02,0002.23,0001.90
2021-10-11 11:23:00,,0821.8,5.00,0.00,27.9,26.7,00.0,37.1,29.6,10.7,0000.0,0003.18,0002.27,0001.91
2021-10-11 11:24:00,,0821.8,5.00,0.00,27.9,26.6,00.0,37.1,29.6,10.7,0000.0,0003.14,0002.25,0001.90
2021-10-11 11:25:00,,0822.0,4.99,0.00,27.9,26.7,00.0,37.1,29.6,10.7,0000.0,0003.09,0002.23,0001.89
2021-10-11 11:26:00,,0822.0,5.00,0.00,27.9,26.7,00.0,37.1,29.6,10.7,0000.0,0003.07,0002.23,0001.90
2021-10-11 11:27:00,,0822.0,5.00,0.00,27.9,26.7,00.0,37.1,29.6,10.7,0000.0,0003.06,0002.22,0001.90
2021-10-11 11:28:00,,0822.1,5.00,0.00,27.9,26.7,00.0,37.1,29.6,10.7,0000.0,0003.00,0002.20,0001.90
2021-10-11 11:29:00,,0822.1,5.00,0.00,27.9,26.7,00.0,37.1,29.6,10.7,0000.0,0003.00,0002.20,0001.91
2021-10-11 11:30:00,,0822.1,5.01,0.00,27.9,26.7,00.0,37.1,29.6,10.7,0000.0,0002.97,0002.21,0001.93
2021-10-11 11:31:00,,0822.1,5.01,0.00,27.9,26.6,00.0,37.1,29.5,10.7,0000.0,0002.93,0002.20,0001.93
2021-10-11 11:32:00,,0822.2,5.00,0.00,27.9,26.7,00.0,37.1,29.6,10.7,0000.0,0002.97,0002.23,0001.95
2021-10-11 11:33:00,,0821.9,5.00,0.00,27.8,26.7,00.0,37.1,29.6,10.7,0000.0,0002.95,0002.24,0001.95
2021-10-11 11:34:00,,0822.0,5.00,0.00,27.8,26.7,00.0,37.0,29.6,10.7,0000.0,0002.79,0002.19,0001.94
2021-10-11 11:35:00,,0821.9,5.00,0.00,27.8,26.7,00.0,37.0,29.6,10.7,0000.0,0002.71,0002.18,0001.95
2021-10-11 11:36:00,,0821.9,4.99,0.00,27.8,26.7,00.0,37.0,29.6,10.7,0000.0,0002.63,0002.15,0001.95
2021-10-11 11:37:00,,0821.8,5.00,0.00,27.8,26.7,00.0,37.0,29.5,10.7,0000.0,0002.70,0002.16,0001.95
2021-10-11 11:38:00,,0821.8,5.02,0.00,27.8,26.6,00.0,37.0,29.5,10.7,0000.0,0002.85,0002.18,0001.95
2021-10-11 11:39:00,,0821.8,4.99,0.00,27.8,26.6,00.0,37.0,29.5,10.7,0000.0,0003.06,0002.17,0001.93
2021-10-11 11:40:00,,0821.9,5.01,0.00,27.8,26.6,00.0,37.0,29.5,10.7,0000.0,0003.15,0002.20,0001.93
2021-10-11 11:41:00,,0822.1,5.00,0.00,27.8,26.6,00.0,37.0,29.5,10.7,0000.0,0003.29,0002.23,0001.94
2021-10-11 11:42:00,,0821.9,5.00,0.00,27.8,26.6,00.0,37.0,29.5,10.7,0000.0,0003.33,0002.24,0001.95
2021-10-11 11:43:00,,0822.0,5.00,0.00,27.8,26.6,00.0,37.0,29.5,10.7,0000.0,0003.31,0002.21,0001.93
2021-10-11 11:44:00,,0822.0,5.00,0.00,27.8,26.7,00.0,37.0,29.5,10.7,0000.0,0003.42,0002.20,0001.92
2021-10-11 11:45:00,,0821.9,5.00,0.00,27.8,26.6,00.0,37.0,29.5,10.7,0000.0,0003.44,0002.21,0001.93
2021-10-11 11:46:00,,0821.8,5.00,0.00,27.8,26.6,00.0,37.0,29.5,10.7,0000.0,0003.44,0002.21,0001.93
2021-10-11 11:47:00,,0822.2,5.00,0.00,27.8,26.6,00.0,37.0,29.5,10.7,0000.0,0003.47,0002.22,0001.94
2021-10-11 11:48:00,,0822.0,5.00,0.00,27.8,26.6,00.0,37.0,29.5,10.7,0000.0,0003.46,0002.23,0001.95
2021-10-11 11:49:00,,0821.8,5.00,0.00,27.7,26.6,00.0,37.0,29.5,10.7,0000.0,0003.27,0002.20,0001.95
2021-10-11 11:50:00,,0822.0,5.01,0.00,27.7,26.6,00.0,37.0,29.5,10.7,0000.0,0003.08,0002.22,0001.97
2021-10-11 11:51:00,,0821.9,4.99,0.00,27.7,26.6,00.0,37.0,29.5,10.7,0000.0,0003.07,0002.21,0001.97
2021-10-11 11:52:00,,0821.8,4.99,0.00,27.7,26.6,00.0,36.9,29.5,10.7,0000.0,0002.93,0002.18,0001.96
2021-10-11 11:53:00,,0821.9,5.00,0.00,27.7,26.5,00.0,36.9,29.4,10.7,0000.0,0002.91,0002.17,0001.96
2021-10-11 11:54:00,,0821.8,4.99,0.00,27.7,26.5,00.0,36.9,29.4,10.7,0000.0,0002.85,0002.17,0001.96
2021-10-11 11:55:00,,0821.8,5.01,0.00,27.7,26.4,00.0,36.9,29.4,10.7,0000.0,0002.66,0002.14,0001.96
2021-10-11 11:56:00,,0821.8,4.99,0.00,27.7,26.5,00.0,36.9,29.4,10.7,0000.0,0002.65,0002.14,0001.97
2021-10-11 11:57:00,,0821.8,5.00,0.00,27.7,26.5,00.0,36.9,29.4,10.7,0000.0,0002.55,0002.11,0001.97
2021-10-11 11:58:00,,0821.8,4.99,0.00,27.7,26.5,00.0,36.9,29.4,10.7,0000.0,0002.59,0002.13,0001.97
2021-10-11 11:59:00,,0821.8,5.01,0.00,27.7,26.5,00.0,36.9,29.4,10.7,0000.0,0002.54,0002.10,0001.96
